﻿_id,日時,平均風速(m/s),平均風向,最大瞬間風速(m/s),最大風速時風向,気温(℃),湿度(%),10分間移動積算雨量(mm),1時間移動積算雨量(mm),日雨量(mm),累計雨量(mm)
1,2020-06-15T00:00:00,1.4,北北西,1.7,北北西,22.8,98,0,0,14,100
2,2020-06-15T00:01:00,1.4,北北西,1.7,北北西,22.8,98,0,0,0,100
3,2020-06-15T00:02:00,1.4,北北西,1.7,北北西,22.8,98,0,0,0,100
4,2020-06-15T00:03:00,1.4,北北西,1.7,北北西,22.8,98,0,0,0,100
5,2020-06-15T00:04:00,1.4,北北西,1.7,北北西,22.8,98,0,0,0,100
6,2020-06-15T00:05:00,1.3,北北西,1.7,北北西,22.8,98,0,0,0,100
7,2020-06-15T00:06:00,1.3,北,1.7,北北西,22.8,98,0,0,0,100
8,2020-06-15T00:07:00,1.3,北,1.7,北北西,22.8,98,0,0,0,100
9,2020-06-15T00:08:00,1.3,北,1.7,北北西,22.8,98,0,0,0,100
10,2020-06-15T00:09:00,1.2,北,1.7,北北西,22.7,98,0,0,0,100
11,2020-06-15T00:10:00,1.2,北,1.7,北北西,22.8,98,0,0,0,100
12,2020-06-15T00:11:00,1.1,北,1.7,北北西,22.7,98,0,0,0,100
13,2020-06-15T00:12:00,1.1,北,1.7,北北西,22.8,98,0,0,0,100
14,2020-06-15T00:13:00,1,北,1.7,北北西,22.8,98,0,0,0,100
15,2020-06-15T00:14:00,1,北,1.7,北北西,22.7,98,0,0,0,100
16,2020-06-15T00:15:00,0.9,北,1.7,北北西,22.8,98,0,0,0,100
17,2020-06-15T00:16:00,0.8,北,1.5,北,22.8,98,0,0,0,100
18,2020-06-15T00:17:00,0.7,北,1.3,北北西,22.8,98,0,0,0,100
19,2020-06-15T00:18:00,0.7,北,1.3,北北西,22.7,98,0,0,0,100
20,2020-06-15T00:19:00,0.6,北,1.1,北北西,22.7,98,0,0,0,100
21,2020-06-15T00:20:00,0.6,北,0.9,北東,22.7,98,0,0,0,100
22,2020-06-15T00:21:00,0.6,北,0.9,北東,22.7,98,0,0,0,100
23,2020-06-15T00:22:00,0.7,北,0.9,北東,22.7,98,0,0,0,100
24,2020-06-15T00:23:00,0.7,北,0.8,北,22.7,98,0,0,0,100
25,2020-06-15T00:24:00,0.7,北,0.9,北,22.7,98,0,0,0,100
26,2020-06-15T00:25:00,0.7,北,1.2,北,22.7,98.1,0,0,0,100
27,2020-06-15T00:26:00,0.8,北,1.2,北,22.7,98.1,0,0,0,100
28,2020-06-15T00:27:00,0.8,北北西,1.4,北西,22.7,98.1,0,0,0,100
29,2020-06-15T00:28:00,0.9,北北西,1.4,北西,22.7,98.1,0,0,0,100
30,2020-06-15T00:29:00,0.9,北北西,1.4,北西,22.8,98.1,0,0,0,100
31,2020-06-15T00:30:00,0.9,北北西,1.4,北西,22.8,98.1,0,0,0,100
32,2020-06-15T00:31:00,0.9,北北西,1.4,北西,22.7,98.1,0,0,0,100
33,2020-06-15T00:32:00,1,北北西,1.4,北西,22.8,98.1,0,0,0,100
34,2020-06-15T00:33:00,1,北北西,1.4,北西,22.8,98.1,0,0,0,100
35,2020-06-15T00:34:00,1,北北西,1.4,北西,22.8,98.1,0,0,0,100
36,2020-06-15T00:35:00,1,北北西,1.4,北西,22.8,98.1,0,0,0,100
37,2020-06-15T00:36:00,1,北北西,1.4,北西,22.8,98.1,0,0,0,100
38,2020-06-15T00:37:00,0.9,北北西,1.3,北北西,22.8,98.1,0,0,0,100
39,2020-06-15T00:38:00,0.9,北北西,1.2,北,22.8,98.1,0,0,0,100
40,2020-06-15T00:39:00,0.8,北北西,1.2,北,22.7,98.1,0,0,0,100
41,2020-06-15T00:40:00,0.9,北北西,1.2,北,22.7,98.1,0,0,0,100
42,2020-06-15T00:41:00,0.9,北北西,1.2,北,22.7,98.1,0,0,0,100
43,2020-06-15T00:42:00,0.8,北北西,1.1,北北西,22.8,98.1,0,0,0,100
44,2020-06-15T00:43:00,0.8,北,1.1,北北西,22.8,98.1,0,0,0,100
45,2020-06-15T00:44:00,0.8,北,1.1,北北西,22.7,98.1,0,0,0,100
46,2020-06-15T00:45:00,0.7,北,1,北北東,22.7,98.1,0,0,0,100
47,2020-06-15T00:46:00,0.7,北,1,北北東,22.8,98.1,0,0,0,100
48,2020-06-15T00:47:00,0.7,北,1,北北東,22.7,98.1,0,0,0,100
49,2020-06-15T00:48:00,0.6,北,1,北北東,22.7,98.1,0,0,0,100
50,2020-06-15T00:49:00,0.6,北,1,北北東,22.7,98.1,0,0,0,100
51,2020-06-15T00:50:00,0.6,北,1,北北東,22.7,98.1,0,0,0,100
52,2020-06-15T00:51:00,0.5,北,1,北北東,22.6,98.1,0,0,0,100
53,2020-06-15T00:52:00,0.5,北,0.9,北北東,22.7,98.1,0,0,0,100
54,2020-06-15T00:53:00,0.4,北,0.8,北北東,22.7,98.1,0,0,0,100
55,2020-06-15T00:54:00,0.4,北北西,0.7,北西,22.7,98.1,0,0,0,100
56,2020-06-15T00:55:00,0.5,北北西,0.8,西北西,22.6,98.1,0,0,0,100
57,2020-06-15T00:56:00,0.5,北北西,0.8,西北西,22.6,98.1,0,0,0,100
58,2020-06-15T00:57:00,0.5,北北西,0.8,西北西,22.7,98.1,0,0,0,100
59,2020-06-15T00:58:00,0.5,北北西,0.8,西北西,22.7,98.1,0,0,0,100
60,2020-06-15T00:59:00,0.5,北北西,1.1,北北西,22.7,98.1,0,0,0,100
61,2020-06-15T01:00:00,0.6,北北西,1.5,北,22.7,98.1,0,0,0,100
62,2020-06-15T01:01:00,0.8,北西,1.8,北,22.7,98.1,0,0,0,100
63,2020-06-15T01:02:00,0.9,北西,2,北,22.7,98.1,0,0,0,100
64,2020-06-15T01:03:00,1.1,北北西,2,北,22.6,98.1,0,0,0,100
65,2020-06-15T01:04:00,1.2,北北西,2,北,22.6,98.1,0,0,0,100
66,2020-06-15T01:05:00,1.3,北北西,2,北,22.6,98.1,0,0,0,100
67,2020-06-15T01:06:00,1.4,北北西,2,北,22.6,98.1,0,0,0,100
68,2020-06-15T01:07:00,1.5,北北西,2,北,22.6,98.1,0,0,0,100
69,2020-06-15T01:08:00,1.6,北,2,北,22.6,98.1,0,0,0,100
70,2020-06-15T01:09:00,1.6,北,2,北,22.6,98.1,0,0,0,100
71,2020-06-15T01:10:00,1.6,北,2,北,22.6,98.1,0,0,0,100
72,2020-06-15T01:11:00,1.5,北,2,北,22.6,98.1,0,0,0,100
73,2020-06-15T01:12:00,1.4,北,2,北北西,22.5,98.1,0,0,0,100
74,2020-06-15T01:13:00,1.3,北,2,北北西,22.5,98.1,0,0,0,100
75,2020-06-15T01:14:00,1.2,北,2,北北西,22.6,98.1,0,0,0,100
76,2020-06-15T01:15:00,1.1,北,1.9,北北西,22.6,98.1,0,0,0,100
77,2020-06-15T01:16:00,1,北,1.7,北,22.6,98.1,0,0,0,100
78,2020-06-15T01:17:00,0.9,北,1.5,北,22.5,98.1,0,0,0,100
79,2020-06-15T01:18:00,0.9,北,1.4,北北東,22.5,98.1,0,0,0,100
80,2020-06-15T01:19:00,0.9,北,1.2,北,22.5,98.1,0,0,0,100
81,2020-06-15T01:20:00,0.9,北,1.2,北,22.5,98.1,0,0,0,100
82,2020-06-15T01:21:00,0.8,北,1.2,北,22.5,98.1,0,0,0,100
83,2020-06-15T01:22:00,0.8,北,1.2,北,22.5,98.1,0,0,0,100
84,2020-06-15T01:23:00,0.8,北,1.2,北,22.4,98.1,0,0,0,100
85,2020-06-15T01:24:00,0.8,北北西,1.2,北,22.3,98,0,0,0,100
86,2020-06-15T01:25:00,0.7,北北西,1.2,北,22.4,98.1,0,0,0,100
87,2020-06-15T01:26:00,0.7,北西,1.2,北,22.5,98.1,0,0,0,100
88,2020-06-15T01:27:00,0.6,北西,1.2,北,22.4,98.2,0,0,0,100
89,2020-06-15T01:28:00,0.6,北西,1.1,北北西,22.5,98.2,0,0,0,100
90,2020-06-15T01:29:00,0.5,北西,1.1,北北西,22.5,98.2,0,0,0,100
91,2020-06-15T01:30:00,0.5,北西,1,北北西,22.5,98.2,0,0,0,100
92,2020-06-15T01:31:00,0.5,北西,1.3,北北東,22.5,98.2,0,0,0,100
93,2020-06-15T01:32:00,0.5,北西,1.3,北北東,22.5,98.2,0,0,0,100
94,2020-06-15T01:33:00,0.6,北西,1.3,北北東,22.5,98.2,0,0,0,100
95,2020-06-15T01:34:00,0.7,北北西,1.7,北,22.5,98.2,0,0,0,100
96,2020-06-15T01:35:00,0.8,北北西,1.7,北,22.5,98.2,0,0,0,100
97,2020-06-15T01:36:00,0.9,北,1.7,北,22.5,98.2,0,0,0,100
98,2020-06-15T01:37:00,0.9,北,1.7,北,22.4,98.2,0,0,0,100
99,2020-06-15T01:38:00,1,北,1.7,北,22.5,98.2,0,0,0,100
100,2020-06-15T01:39:00,1.1,北,1.7,北,22.4,98.2,0,0,0,100
101,2020-06-15T01:40:00,1.1,北北東,1.7,北,22.5,98.2,0,0,0,100
102,2020-06-15T01:41:00,1.1,北北東,1.7,北,22.4,98.2,0,0,0,100
103,2020-06-15T01:42:00,1,北,1.7,北,22.5,98.2,0,0,0,100
104,2020-06-15T01:43:00,0.9,北,1.7,北,22.4,98.2,0,0,0,100
105,2020-06-15T01:44:00,0.8,北,1.6,北,22.4,98.2,0,0,0,100
106,2020-06-15T01:45:00,0.7,北,1.6,北,22.4,98.2,0,0,0,100
107,2020-06-15T01:46:00,0.5,北,1.6,北,22.4,98.2,0,0,0,100
108,2020-06-15T01:47:00,0.4,北,1.6,北,22.4,98.2,0,0,0,100
109,2020-06-15T01:48:00,0.3,北北西,1.6,北,22.4,98.2,0,0,0,100
110,2020-06-15T01:49:00,0.3,北北西,1,北北東,22.4,98.2,0,0,0,100
111,2020-06-15T01:50:00,0.3,北北西,1,北北西,22.3,98.1,0,0,0,100
112,2020-06-15T01:51:00,0.3,北北西,1.2,北北西,22.3,98.2,0,0,0,100
113,2020-06-15T01:52:00,0.4,北北西,1.4,北北西,22.3,98.2,0,0,0,100
114,2020-06-15T01:53:00,0.5,北北西,1.4,北北西,22.2,98.2,0,0,0,100
115,2020-06-15T01:54:00,0.6,北北西,1.4,北北西,22.2,98.2,0,0,0,100
116,2020-06-15T01:55:00,0.8,北北西,1.4,北北西,22.4,98.2,0,0,0,100
117,2020-06-15T01:56:00,0.9,北西,1.6,北北西,22.5,98.3,0,0,0,100
118,2020-06-15T01:57:00,1,北北西,1.6,北北西,22.4,98.3,0,0,0,100
119,2020-06-15T01:58:00,1.1,北北西,1.6,北北西,22.4,98.3,0,0,0,100
120,2020-06-15T01:59:00,1.2,北北西,1.7,北,22.5,98.3,0,0,0,100
121,2020-06-15T02:00:00,1.3,北北西,1.7,北,22.5,98.3,0,0,0,100
122,2020-06-15T02:01:00,1.3,北,1.7,北,22.4,98.3,0,0,0,100
123,2020-06-15T02:02:00,1.3,北,1.7,北,22.4,98.2,0,0,0,100
124,2020-06-15T02:03:00,1.3,北,1.7,北,22.4,98.2,0,0,0,100
125,2020-06-15T02:04:00,1.3,北,1.7,北,22.4,98.2,0,0,0,100
126,2020-06-15T02:05:00,1.3,北北東,1.7,北,22.4,98.2,0,0,0,100
127,2020-06-15T02:06:00,1.3,北北東,1.7,北,22.4,98.2,0,0,0,100
128,2020-06-15T02:07:00,1.4,北北東,1.7,北,22.4,98.2,0,0,0,100
129,2020-06-15T02:08:00,1.4,北北東,1.8,北,22.4,98.2,0,0,0,100
130,2020-06-15T02:09:00,1.4,北北東,1.9,北北東,22.4,98.2,0,0,0,100
131,2020-06-15T02:10:00,1.4,北北東,1.9,北北東,22.4,98.2,0,0,0,100
132,2020-06-15T02:11:00,1.4,北北東,1.9,北北東,22.4,98.2,0,0,0,100
133,2020-06-15T02:12:00,1.4,北北東,1.9,北北東,22.4,98.3,0,0,0,100
134,2020-06-15T02:13:00,1.4,北北東,1.9,北北東,22.4,98.2,0,0,0,100
135,2020-06-15T02:14:00,1.4,北北東,1.9,北北東,22.4,98.3,0,0,0,100
136,2020-06-15T02:15:00,1.4,北北東,1.9,北北東,22.4,98.2,0,0,0,100
137,2020-06-15T02:16:00,1.3,北北東,1.9,北北東,22.4,98.2,0,0,0,100
138,2020-06-15T02:17:00,1.3,北北東,1.9,北北東,22.4,98.2,0,0,0,100
139,2020-06-15T02:18:00,1.3,北北東,1.9,北北東,22.4,98.3,0,0,0,100
140,2020-06-15T02:19:00,1.2,北北東,1.7,北,22.4,98.3,0,0,0,100
141,2020-06-15T02:20:00,1.2,北北東,1.6,北,22.4,98.3,0,0,0,100
142,2020-06-15T02:21:00,1.2,北北東,1.6,北,22.4,98.3,0,0,0,100
143,2020-06-15T02:22:00,1.2,北北東,1.7,北,22.4,98.3,0,0,0,100
144,2020-06-15T02:23:00,1.2,北北東,1.8,北,22.4,98.3,0,0,0,100
145,2020-06-15T02:24:00,1.3,北北東,1.8,北,22.4,98.3,0,0,0,100
146,2020-06-15T02:25:00,1.3,北,1.8,北,22.4,98.3,0,0,0,100
147,2020-06-15T02:26:00,1.3,北,1.8,北,22.4,98.3,0,0,0,100
148,2020-06-15T02:27:00,1.2,北,1.8,北,22.4,98.3,0,0,0,100
149,2020-06-15T02:28:00,1.1,北,1.8,北,22.4,98.3,0,0,0,100
150,2020-06-15T02:29:00,1.1,北,1.8,北,22.4,98.3,0,0,0,100
151,2020-06-15T02:30:00,1,北,1.8,北,22.4,98.3,0,0,0,100
152,2020-06-15T02:31:00,0.9,北,1.8,北,22.4,98.3,0,0,0,100
153,2020-06-15T02:32:00,0.9,北,1.8,北,22.4,98.3,0,0,0,100
154,2020-06-15T02:33:00,0.8,北北東,1.8,北,22.4,98.3,0,0,0,100
155,2020-06-15T02:34:00,0.8,北北東,1.8,北北東,22.4,98.3,0,0,0,100
156,2020-06-15T02:35:00,0.8,北北東,2.1,北,22.4,98.3,0,0,0,100
157,2020-06-15T02:36:00,0.9,北北東,2.1,北,22.4,98.3,0,0,0,100
158,2020-06-15T02:37:00,1.1,北北東,2.5,北,22.4,98.3,0,0,0,100
159,2020-06-15T02:38:00,1.3,北北東,2.5,北,22.4,98.3,0,0,0,100
160,2020-06-15T02:39:00,1.4,北北東,2.8,北北西,22.4,98.3,0,0,0,100
161,2020-06-15T02:40:00,1.6,北,2.8,北北西,22.4,98.3,0,0,0,100
162,2020-06-15T02:41:00,1.8,北,3.2,北西,22.4,98.3,0,0,0,100
163,2020-06-15T02:42:00,2,北,3.2,北西,22.5,98.3,0,0,0,100
164,2020-06-15T02:43:00,2.1,北,3.2,北西,22.5,98.3,0,0,0,100
165,2020-06-15T02:44:00,2.3,北北西,3.3,北北西,22.5,98.3,0,0,0,100
166,2020-06-15T02:45:00,2.4,北北西,3.3,北北西,22.5,98.3,0,0,0,100
167,2020-06-15T02:46:00,2.5,北北西,3.3,北北西,22.5,98.3,0,0,0,100
168,2020-06-15T02:47:00,2.5,北北西,3.3,北北西,22.5,98.3,0,0,0,100
169,2020-06-15T02:48:00,2.6,北北西,3.6,北,22.5,98.3,0,0,0,100
170,2020-06-15T02:49:00,2.8,北北西,3.7,北北西,22.5,98.3,0,0,0,100
171,2020-06-15T02:50:00,2.8,北北西,3.7,北北西,22.5,98.3,0,0,0,100
172,2020-06-15T02:51:00,2.9,北北西,4.1,北北西,22.5,98.3,0,0,0,100
173,2020-06-15T02:52:00,3,北北西,4.1,北北西,22.5,98.3,0,0,0,100
174,2020-06-15T02:53:00,3.1,北北西,4.1,北北西,22.5,98.3,0,0,0,100
175,2020-06-15T02:54:00,3.1,北北西,4.1,北北西,22.5,98.3,0,0,0,100
176,2020-06-15T02:55:00,3.2,北北西,4.1,北北西,22.5,98.3,0,0,0,100
177,2020-06-15T02:56:00,3.2,北北西,4.1,北北西,22.5,98.3,0,0,0,100
178,2020-06-15T02:57:00,3.3,北北西,4.1,北北西,22.5,98.3,0,0,0,100
179,2020-06-15T02:58:00,3.2,北北西,4.1,北北西,22.5,98.3,0,0,0,100
180,2020-06-15T02:59:00,3.1,北北西,4.1,北北西,22.5,98.3,0,0,0,100
181,2020-06-15T03:00:00,3,北北西,4.1,北北西,22.5,98.3,0,0,0,100
182,2020-06-15T03:01:00,2.9,北西,4.1,北北西,22.5,98.3,0,0,0,100
183,2020-06-15T03:02:00,2.7,北西,3.9,北西,22.5,98.3,0,0,0,100
184,2020-06-15T03:03:00,2.5,北西,3.9,北西,22.5,98.3,0,0,0,100
185,2020-06-15T03:04:00,2.2,北西,3.9,北西,22.5,98.3,0,0,0,100
186,2020-06-15T03:05:00,1.9,北西,3.9,北西,22.5,98.3,0,0,0,100
187,2020-06-15T03:06:00,1.7,北西,3.9,北西,22.5,98.3,0,0,0,100
188,2020-06-15T03:07:00,1.5,北北西,3.5,北北西,22.5,98.3,0,0,0,100
189,2020-06-15T03:08:00,1.2,北北西,3.5,北北西,22.5,98.3,0,0,0,100
190,2020-06-15T03:09:00,1.1,北北西,3.5,北北西,22.5,98.3,0,0,0,100
191,2020-06-15T03:10:00,0.9,北北西,3.5,北北西,22.4,98.3,0,0,0,100
192,2020-06-15T03:11:00,0.8,北北西,2.3,北西,22.4,98.3,0,0,0,100
193,2020-06-15T03:12:00,0.7,北,1.8,西北西,22.4,98.3,0,0,0,100
194,2020-06-15T03:13:00,0.6,北北東,1.3,北西,22.4,98.3,0,0,0,100
195,2020-06-15T03:14:00,0.6,北,1.3,北西,22.4,98.3,0,0,0,100
196,2020-06-15T03:15:00,0.6,北,1.3,北西,22.3,98.3,0,0,0,100
197,2020-06-15T03:16:00,0.5,北北西,1.3,北西,22.3,98.3,0,0,0,100
198,2020-06-15T03:17:00,0.5,北西,1.3,北西,22.3,98.3,0,0,0,100
199,2020-06-15T03:18:00,0.5,北西,1.3,北西,22.3,98.3,0,0,0,100
200,2020-06-15T03:19:00,0.5,北西,1.3,北西,22.3,98.3,0,0,0,100
201,2020-06-15T03:20:00,0.5,北西,1.1,北西,22.3,98.3,0,0,0,100
202,2020-06-15T03:21:00,0.4,北西,0.9,北西,22.4,98.3,0,0,0,100
203,2020-06-15T03:22:00,0.4,北西,0.9,北西,22.3,98.3,0,0,0,100
204,2020-06-15T03:23:00,0.5,西北西,0.9,北西,22.3,98.3,0,0,0,100
205,2020-06-15T03:24:00,0.5,西北西,0.9,北西,22.4,98.3,0,0,0,100
206,2020-06-15T03:25:00,0.5,西北西,0.9,北西,22.3,98.3,0,0,0,100
207,2020-06-15T03:26:00,0.4,西北西,0.9,北西,22.4,98.3,0,0,0,100
208,2020-06-15T03:27:00,0.5,西北西,1.2,北西,22.4,98.3,0,0,0,100
209,2020-06-15T03:28:00,0.5,西北西,1.7,西北西,22.4,98.4,0,0,0,100
210,2020-06-15T03:29:00,0.5,西北西,1.7,西北西,22.4,98.4,0,0,0,100
211,2020-06-15T03:30:00,0.6,北西,1.7,西北西,22.4,98.4,0,0,0,100
212,2020-06-15T03:31:00,0.6,北西,1.7,西北西,22.5,98.4,0,0,0,100
213,2020-06-15T03:32:00,0.6,北西,1.7,西北西,22.5,98.4,0,0,0,100
214,2020-06-15T03:33:00,0.6,北北西,1.7,西北西,22.5,98.4,0,0,0,100
215,2020-06-15T03:34:00,0.7,北北西,1.7,西北西,22.5,98.4,0,0,0,100
216,2020-06-15T03:35:00,0.8,北北西,2.6,北西,22.5,98.4,0,0,0,100
217,2020-06-15T03:36:00,1,北北西,2.9,北西,22.5,98.4,0,0,0,100
218,2020-06-15T03:37:00,1,北北西,2.9,北西,22.5,98.4,0,0,0,100
219,2020-06-15T03:38:00,1.2,北北西,2.9,北西,22.5,98.4,0,0,0,100
220,2020-06-15T03:39:00,1.3,北北西,2.9,北西,22.5,98.4,0,0,0,100
221,2020-06-15T03:40:00,1.4,北北西,2.9,北西,22.5,98.4,0,0,0,100
222,2020-06-15T03:41:00,1.4,北北西,2.9,北西,22.5,98.4,0,0,0,100
223,2020-06-15T03:42:00,1.5,北北西,2.9,北西,22.5,98.3,0,0,0,100
224,2020-06-15T03:43:00,1.6,北北西,2.9,北西,22.5,98.4,0,0,0,100
225,2020-06-15T03:44:00,1.6,北,2.9,北西,22.5,98.3,0,0,0,100
226,2020-06-15T03:45:00,1.5,北,2.9,北西,22.5,98.3,0,0,0,100
227,2020-06-15T03:46:00,1.4,北,2.8,北,22.5,98.4,0,0,0,100
228,2020-06-15T03:47:00,1.4,北北東,2.8,北,22.5,98.3,0,0,0,100
229,2020-06-15T03:48:00,1.3,北北東,2.8,北,22.5,98.3,0,0,0,100
230,2020-06-15T03:49:00,1.2,北東,2.5,北北西,22.5,98.3,0,0,0,100
231,2020-06-15T03:50:00,1.1,北東,2.3,北,22.5,98.3,0,0,0,100
232,2020-06-15T03:51:00,1,東北東,2,北北西,22.4,98.3,0,0,0,100
233,2020-06-15T03:52:00,0.8,東北東,1.7,北北西,22.5,98.3,0,0,0,100
234,2020-06-15T03:53:00,0.7,東,1.4,東,22.5,98.3,0,0,0,100
235,2020-06-15T03:54:00,0.7,東,1.4,東,22.3,98.3,0,0,0,100
236,2020-06-15T03:55:00,0.7,東南東,1.4,東,22.3,98.3,0,0,0,100
237,2020-06-15T03:56:00,0.7,南東,1.4,東,22.3,98.3,0,0,0,100
238,2020-06-15T03:57:00,0.7,南南西,1.4,東,22.3,98.3,0,0,0,100
239,2020-06-15T03:58:00,0.6,西南西,1.2,東南東,22.3,98.3,0,0,0,100
240,2020-06-15T03:59:00,0.6,西南西,1.2,東南東,22.3,98.3,0,0,0,100
241,2020-06-15T04:00:00,0.6,西南西,1.1,東南東,22.3,98.3,0,0,0,100
242,2020-06-15T04:01:00,0.5,西,1,西南西,22.3,98.3,0,0,0,100
243,2020-06-15T04:02:00,0.5,西,1,西南西,22.3,98.4,0,0,0,100
244,2020-06-15T04:03:00,0.5,西,1,西南西,22.3,98.4,0,0,0,100
245,2020-06-15T04:04:00,0.5,西,1,西南西,22.3,98.3,0,0,0,100
246,2020-06-15T04:05:00,0.5,西南西,0.8,南南西,22.3,98.3,0,0,0,100
247,2020-06-15T04:06:00,0.5,西南西,1.2,南南西,22.3,98.3,0,0,0,100
248,2020-06-15T04:07:00,0.6,西南西,1.3,南南西,22.2,98.3,0,0,0,100
249,2020-06-15T04:08:00,0.7,南西,1.5,南南西,22.3,98.3,0,0,0,100
250,2020-06-15T04:09:00,0.7,南西,1.5,南南西,22.3,98.3,0,0,0,100
251,2020-06-15T04:10:00,0.8,南西,1.5,南南西,22.3,98.3,0,0,0,100
252,2020-06-15T04:11:00,0.8,南南西,1.5,南南西,22.3,98.3,0,0,0,100
253,2020-06-15T04:12:00,0.9,南南西,1.5,南南西,22.3,98.4,0,0,0,100
254,2020-06-15T04:13:00,0.9,南南西,1.5,南南西,22.3,98.3,0,0,0,100
255,2020-06-15T04:14:00,1,南南西,1.5,南南西,22.3,98.4,0,0,0,100
256,2020-06-15T04:15:00,1,南南西,1.5,南南西,22.3,98.4,0,0,0,100
257,2020-06-15T04:16:00,0.9,南南西,1.5,南南西,22.3,98.4,0,0,0,100
258,2020-06-15T04:17:00,0.9,南南西,1.5,南南西,22.3,98.4,0,0,0,100
259,2020-06-15T04:18:00,0.8,南,1.4,南南西,22.3,98.4,0,0,0,100
260,2020-06-15T04:19:00,0.7,南,1.4,南南西,22.3,98.4,0,0,0,100
261,2020-06-15T04:20:00,0.6,南,1.1,南,22.3,98.4,0,0,0,100
262,2020-06-15T04:21:00,0.6,南,1.1,南,22.3,98.4,0,0,0,100
263,2020-06-15T04:22:00,0.5,南,1.1,南,22.3,98.4,0,0,0,100
264,2020-06-15T04:23:00,0.5,南,0.8,南南西,22.3,98.3,0,0,0,100
265,2020-06-15T04:24:00,0.5,南,1,南南東,22.3,98.4,0,0,0,100
266,2020-06-15T04:25:00,0.5,南,1.2,南南東,22.3,98.4,0,0,0,100
267,2020-06-15T04:26:00,0.6,南,1.2,南南東,22.2,98.3,0,0,0,100
268,2020-06-15T04:27:00,0.6,南南東,1.2,南南東,22.2,98.3,0,0,0,100
269,2020-06-15T04:28:00,0.7,南南東,1.2,南南東,22.3,98.4,0,0,0,100
270,2020-06-15T04:29:00,0.8,南南東,1.2,南南東,22.3,98.4,0,0,0,100
271,2020-06-15T04:30:00,0.9,南,1.8,南南西,22.3,98.4,0,0,0,100
272,2020-06-15T04:31:00,1,南,2.3,南南西,22.3,98.4,0,0,0,100
273,2020-06-15T04:32:00,1.2,南,2.3,南南西,22.3,98.4,0,0,0,100
274,2020-06-15T04:33:00,1.3,南,2.3,南南西,22.3,98.4,0,0,0,100
275,2020-06-15T04:34:00,1.4,南,2.3,南南西,22.2,98.4,0,0,0,100
276,2020-06-15T04:35:00,1.5,南,2.3,南南西,22.3,98.4,0,0,0,100
277,2020-06-15T04:36:00,1.5,南,2.3,南南西,22.2,98.4,0,0,0,100
278,2020-06-15T04:37:00,1.6,南,2.3,南南西,22.2,98.4,0,0,0,100
279,2020-06-15T04:38:00,1.6,南南西,2.3,南南西,22.3,98.4,0,0,0,100
280,2020-06-15T04:39:00,1.7,南南西,2.3,南南西,22.2,98.4,0,0,0,100
281,2020-06-15T04:40:00,1.7,南南西,2.3,南南西,22.2,98.4,0,0,0,100
282,2020-06-15T04:41:00,1.7,南南西,2.3,南西,22.2,98.3,0,0,0,100
283,2020-06-15T04:42:00,1.6,南南西,2.3,南西,22.2,98.3,0,0,0,100
284,2020-06-15T04:43:00,1.6,南南西,2.3,南西,22.2,98.4,0,0,0,100
285,2020-06-15T04:44:00,1.6,南南西,2.3,南西,22.2,98.4,0,0,0,100
286,2020-06-15T04:45:00,1.6,南南西,2.3,南西,22.2,98.4,0,0,0,100
287,2020-06-15T04:46:00,1.6,南西,2.3,南西,22.2,98.4,0,0,0,100
288,2020-06-15T04:47:00,1.6,南西,2.3,南西,22.2,98.4,0,0,0,100
289,2020-06-15T04:48:00,1.6,南西,2.3,南西,22.2,98.4,0,0,0,100
290,2020-06-15T04:49:00,1.6,南西,2.1,南西,22.2,98.4,0,0,0,100
291,2020-06-15T04:50:00,1.6,南西,1.9,南西,22.2,98.4,0,0,0,100
292,2020-06-15T04:51:00,1.6,南西,1.8,南西,22.2,98.4,0,0,0,100
293,2020-06-15T04:52:00,1.6,南西,1.8,南西,22.3,98.4,0,0,0,100
294,2020-06-15T04:53:00,1.6,南西,1.8,南西,22.3,98.4,0,0,0,100
295,2020-06-15T04:54:00,1.6,南西,1.8,南西,22.2,98.4,0,0,0,100
296,2020-06-15T04:55:00,1.6,南西,1.8,南西,22.2,98.4,0,0,0,100
297,2020-06-15T04:56:00,1.5,南西,1.8,南西,22.2,98.4,0,0,0,100
298,2020-06-15T04:57:00,1.5,南西,1.8,南西,22.3,98.4,0,0,0,100
299,2020-06-15T04:58:00,1.5,南西,1.8,南西,22.3,98.4,0,0,0,100
300,2020-06-15T04:59:00,1.5,南南西,1.8,南西,22.3,98.4,0,0,0,100
301,2020-06-15T05:00:00,1.4,南南西,1.8,南西,22.2,98.4,0,0,0,100
302,2020-06-15T05:01:00,1.3,南南西,1.8,南南西,22.2,98.4,0,0,0,100
303,2020-06-15T05:02:00,1.3,南南西,1.8,南南西,22.3,98.4,0,0,0,100
304,2020-06-15T05:03:00,1.2,南,1.8,南南西,22.3,98.4,0,0,0,100
305,2020-06-15T05:04:00,1.1,南,1.8,南南西,22.3,98.4,0,0,0,100
306,2020-06-15T05:05:00,1,南,1.8,南南西,22.3,98.4,0,0,0,100
307,2020-06-15T05:06:00,0.9,南,1.8,南南西,22.3,98.4,0,0,0,100
308,2020-06-15T05:07:00,0.9,南南東,1.6,南南西,22.3,98.4,0,0,0,100
309,2020-06-15T05:08:00,0.8,南南東,1.4,南,22.3,98.4,0,0,0,100
310,2020-06-15T05:09:00,0.8,南南東,1.4,南,22.3,98.4,0,0,0,100
311,2020-06-15T05:10:00,0.8,南南東,1.4,南東,22.3,98.4,0,0,0,100
312,2020-06-15T05:11:00,0.8,南南東,1.4,南東,22.3,98.4,0,0,0,100
313,2020-06-15T05:12:00,0.8,南南東,1.4,南東,22.3,98.4,0,0,0,100
314,2020-06-15T05:13:00,0.8,南東,1.4,南東,22.3,98.4,0,0,0,100
315,2020-06-15T05:14:00,0.8,南東,1.4,南東,22.3,98.4,0,0,0,100
316,2020-06-15T05:15:00,0.7,南東,1.4,南東,22.4,98.4,0,0,0,100
317,2020-06-15T05:16:00,0.6,南東,1.4,南東,22.4,98.4,0,0,0,100
318,2020-06-15T05:17:00,0.5,南東,1.4,南東,22.3,98.4,0,0,0,100
319,2020-06-15T05:18:00,0.4,南東,1.4,南東,22.3,98.4,0,0,0,100
320,2020-06-15T05:19:00,0.3,東南東,1.4,南東,22.4,98.4,0,0,0,100
321,2020-06-15T05:20:00,0.2,静穏,1.1,南南東,22.4,98.4,0,0,0,100
322,2020-06-15T05:21:00,0.1,静穏,0.7,東,22.4,98.4,0,0,0,100
323,2020-06-15T05:22:00,0,静穏,0.6,東南東,22.3,98.4,0,0,0,100
324,2020-06-15T05:23:00,0,静穏,0.4,東,22.3,98.4,0,0,0,100
325,2020-06-15T05:24:00,0,静穏,0,西北西,22.4,98.4,0,0,0,100
326,2020-06-15T05:25:00,0,静穏,0,西北西,22.4,98.4,0,0,0,100
327,2020-06-15T05:26:00,0,静穏,0,西北西,22.4,98.4,0,0,0,100
328,2020-06-15T05:27:00,0,静穏,0,西北西,22.4,98.4,0,0,0,100
329,2020-06-15T05:28:00,0,静穏,0,西北西,22.4,98.4,0,0,0,100
330,2020-06-15T05:29:00,0,静穏,0.7,南東,22.4,98.4,0,0,0,100
331,2020-06-15T05:30:00,0.1,静穏,0.9,南東,22.4,98.4,0,0,0,100
332,2020-06-15T05:31:00,0.2,静穏,0.9,南東,22.4,98.4,0,0,0,100
333,2020-06-15T05:32:00,0.3,南東,0.9,南東,22.3,98.4,0,0,0,100
334,2020-06-15T05:33:00,0.3,南東,0.9,南東,22.3,98.4,0,0,0,100
335,2020-06-15T05:34:00,0.4,南東,1,南南西,22.4,98.4,0,0,0,100
336,2020-06-15T05:35:00,0.5,南東,1,南南西,22.4,98.4,0,0,0,100
337,2020-06-15T05:36:00,0.6,南南東,1,南南西,22.4,98.4,0,0,0,100
338,2020-06-15T05:37:00,0.6,南南東,1,南南西,22.4,98.4,0,0,0,100
339,2020-06-15T05:38:00,0.7,南南東,1,南南西,22.3,98.4,0,0,0,100
340,2020-06-15T05:39:00,0.7,南南東,1,南南西,22.3,98.4,0,0,0,100
341,2020-06-15T05:40:00,0.7,南南東,1,南南西,22.4,98.4,0,0,0,100
342,2020-06-15T05:41:00,0.6,南,1,南南西,22.4,98.4,0,0,0,100
343,2020-06-15T05:42:00,0.6,南,1,南南西,22.4,98.4,0,0,0,100
344,2020-06-15T05:43:00,0.6,南,1,南南西,22.4,98.4,0,0,0,100
345,2020-06-15T05:44:00,0.6,南,1,南西,22.4,98.4,0,0,0,100
346,2020-06-15T05:45:00,0.6,南,0.9,南西,22.4,98.4,0,0,0,100
347,2020-06-15T05:46:00,0.6,南,0.9,南西,22.4,98.4,0,0,0,100
348,2020-06-15T05:47:00,0.6,南,0.9,南西,22.3,98.4,0,0,0,100
349,2020-06-15T05:48:00,0.6,南,0.9,南西,22.4,98.4,0,0,0,100
350,2020-06-15T05:49:00,0.6,南南西,0.9,南西,22.5,98.4,0,0,0,100
351,2020-06-15T05:50:00,0.6,南西,1,西,22.4,98.4,0,0,0,100
352,2020-06-15T05:51:00,0.6,南西,1.1,西北西,22.4,98.4,0,0,0,100
353,2020-06-15T05:52:00,0.7,南西,1.2,西北西,22.4,98.4,0,0,0,100
354,2020-06-15T05:53:00,0.7,西南西,1.2,西北西,22.4,98.4,0,0,0,100
355,2020-06-15T05:54:00,0.8,西南西,1.2,西北西,22.4,98.4,0,0,0,100
356,2020-06-15T05:55:00,0.7,西,1.2,西北西,22.4,98.4,0,0,0,100
357,2020-06-15T05:56:00,0.7,西,1.2,西北西,22.3,98.4,0,0,0,100
358,2020-06-15T05:57:00,0.7,西北西,1.2,西北西,22.3,98.4,0,0,0,100
359,2020-06-15T05:58:00,0.6,北西,1.2,西北西,22.5,98.4,0,0,0,100
360,2020-06-15T05:59:00,0.6,北西,1.2,西北西,22.5,98.5,0,0,0,100
361,2020-06-15T06:00:00,0.5,北北西,1.2,西北西,22.5,98.4,0,0,0,100
362,2020-06-15T06:01:00,0.5,北北西,1.2,西北西,22.4,98.4,0,0,0,100
363,2020-06-15T06:02:00,0.5,北,1.2,西,22.5,98.4,0,0,0,100
364,2020-06-15T06:03:00,0.4,北東,1,西北西,22.4,98.4,0,0,0,100
365,2020-06-15T06:04:00,0.3,北東,0.9,南東,22.4,98.4,0,0,0,100
366,2020-06-15T06:05:00,0.3,東北東,0.9,南東,22.5,98.4,0,0,0,100
367,2020-06-15T06:06:00,0.3,東北東,0.9,南東,22.5,98.5,0,0,0,100
368,2020-06-15T06:07:00,0.3,東南東,0.9,南東,22.5,98.5,0,0,0,100
369,2020-06-15T06:08:00,0.4,南,0.9,南東,22.5,98.4,0,0,0,100
370,2020-06-15T06:09:00,0.4,南西,0.9,南東,22.5,98.4,0,0,0,100
371,2020-06-15T06:10:00,0.4,西南西,0.9,南東,22.6,98.5,0,0,0,100
372,2020-06-15T06:11:00,0.3,西,0.9,南東,22.4,98.4,0,0,0,100
373,2020-06-15T06:12:00,0.3,西北西,0.6,西,22.4,98.3,0,0,0,100
374,2020-06-15T06:13:00,0.2,静穏,0.6,西,22.4,98.4,0,0,0,100
375,2020-06-15T06:14:00,0.2,静穏,0.6,西,22.6,98.4,0,0,0,100
376,2020-06-15T06:15:00,0.2,静穏,0.6,西,22.7,98.5,0,0,0,100
377,2020-06-15T06:16:00,0.2,静穏,0.6,西,22.6,98.5,0,0,0,100
378,2020-06-15T06:17:00,0.1,静穏,0.6,西,22.5,98.4,0,0,0,100
379,2020-06-15T06:18:00,0.1,静穏,0.4,北北西,22.5,98.4,0,0,0,100
380,2020-06-15T06:19:00,0,静穏,0.4,北北西,22.5,98.4,0,0,0,100
381,2020-06-15T06:20:00,0.1,静穏,0.7,北,22.5,98.4,0,0,0,100
382,2020-06-15T06:21:00,0.1,静穏,0.7,北,22.5,98.4,0,0,0,100
383,2020-06-15T06:22:00,0.2,静穏,0.7,北,22.5,98.4,0,0,0,100
384,2020-06-15T06:23:00,0.2,静穏,0.7,北,22.5,98.4,0,0,0,100
385,2020-06-15T06:24:00,0.3,北,0.8,北北東,22.5,98.4,0,0,0,100
386,2020-06-15T06:25:00,0.3,北,0.8,北北東,22.4,98.4,0,0,0,100
387,2020-06-15T06:26:00,0.3,北,0.8,北北東,22.5,98.4,0,0,0,100
388,2020-06-15T06:27:00,0.4,北北西,0.8,北北東,22.5,98.4,0,0,0,100
389,2020-06-15T06:28:00,0.4,北北西,0.8,北北東,22.5,98.4,0,0,0,100
390,2020-06-15T06:29:00,0.4,北,0.8,北北東,22.6,98.4,0,0,0,100
391,2020-06-15T06:30:00,0.4,北,0.8,北北東,22.5,98.4,0,0,0,100
392,2020-06-15T06:31:00,0.3,北,0.8,北北東,22.5,98.4,0,0,0,100
393,2020-06-15T06:32:00,0.3,北北西,0.8,北北東,22.8,98.5,0,0,0,100
394,2020-06-15T06:33:00,0.4,北北西,0.9,南西,22.9,98.5,0,0,0,100
395,2020-06-15T06:34:00,0.4,北西,0.9,南西,22.7,98.5,0,0,0,100
396,2020-06-15T06:35:00,0.4,西南西,1,南,22.6,98.4,0,0,0,100
397,2020-06-15T06:36:00,0.4,南南西,1,南,22.6,98.4,0,0,0,100
398,2020-06-15T06:37:00,0.4,南南西,1,南,22.6,98.4,0,0,0,100
399,2020-06-15T06:38:00,0.5,南南西,1,南,22.6,98.4,0,0,0,100
400,2020-06-15T06:39:00,0.5,南南西,1,南,22.6,98.4,0,0,0,100
401,2020-06-15T06:40:00,0.5,南南西,1,南,22.7,98.4,0,0,0,100
402,2020-06-15T06:41:00,0.6,南南西,1,南,23,98.5,0,0,0,100
403,2020-06-15T06:42:00,0.6,南南西,1,南,22.9,98.5,0,0,0,100
404,2020-06-15T06:43:00,0.6,南南西,1,南,22.9,98.5,0,0,0,100
405,2020-06-15T06:44:00,0.6,南西,1,南,23,98.5,0,0,0,100
406,2020-06-15T06:45:00,0.6,南西,1,西南西,23,98.5,0,0,0,100
407,2020-06-15T06:46:00,0.6,西南西,1,西南西,23.1,98.5,0,0,0,100
408,2020-06-15T06:47:00,0.5,西南西,1,西南西,23.1,98.5,0,0,0,100
409,2020-06-15T06:48:00,0.5,西南西,1.1,南南西,23,98.4,0,0,0,100
410,2020-06-15T06:49:00,0.6,西南西,1.5,南,22.9,98.3,0,0,0,100
411,2020-06-15T06:50:00,0.6,西南西,1.6,南,22.9,98.3,0,0,0,100
412,2020-06-15T06:51:00,0.7,西南西,2.1,東南東,23,98.4,0,0,0,100
413,2020-06-15T06:52:00,0.9,南西,2.5,南東,23,98.4,0,0,0,100
414,2020-06-15T06:53:00,1,南南西,2.5,南東,22.9,98.3,0,0,0,100
415,2020-06-15T06:54:00,1,南南西,2.5,南東,23,98.3,0,0,0,100